Time,TemperatureF,DewpointF,PressureIn,WindDirection,WindDirectionDegrees,WindSpeedMPH,WindSpeedGustMPH,Humidity,HourlyPrecipIn,Conditions,Clouds,dailyrainin,SoftwareType,DateUTC
2013-01-28 00:00:00,72.0,64.0,30.33,East,88,9.0,11.0,75,0.00,,,0.00,weatherlink.com 1.10,2013-01-28 05:00:00,
2013-01-28 00:15:00,72.2,64.0,30.33,ENE,72,7.0,12.0,75,0.00,,,0.00,weatherlink.com 1.10,2013-01-28 05:15:00,
2013-01-28 00:30:00,72.1,64.0,30.33,East,80,12.0,12.0,75,0.00,,,0.00,weatherlink.com 1.10,2013-01-28 05:30:00,
2013-01-28 00:45:00,72.0,64.0,30.32,East,85,9.0,14.0,75,0.00,,,0.00,weatherlink.com 1.10,2013-01-28 05:45:00,
2013-01-28 01:00:00,72.1,64.0,30.32,ENE,71,4.0,12.0,75,0.00,,,0.00,weatherlink.com 1.10,2013-01-28 06:00:00,
2013-01-28 01:15:00,72.2,65.0,30.32,East,89,11.0,14.0,77,0.00,,,0.00,weatherlink.com 1.10,2013-01-28 06:15:00,
2013-01-28 01:30:00,72.0,63.0,30.32,East,94,9.0,15.0,74,0.00,,,0.00,weatherlink.com 1.10,2013-01-28 06:30:00,
2013-01-28 01:45:00,71.9,63.0,30.32,ENE,74,10.0,14.0,74,0.00,,,0.00,weatherlink.com 1.10,2013-01-28 06:45:00,
2013-01-28 02:00:00,72.0,63.0,30.32,ENE,77,9.0,16.0,74,0.00,,,0.00,weatherlink.com 1.10,2013-01-28 07:00:00,
2013-01-28 02:15:00,71.9,63.0,30.31,East,92,9.0,16.0,74,0.00,,,0.00,weatherlink.com 1.10,2013-01-28 07:15:00,
2013-01-28 02:30:00,71.9,62.0,30.31,ENE,76,10.0,16.0,72,0.00,,,0.00,weatherlink.com 1.10,2013-01-28 07:30:00,
2013-01-28 02:45:00,71.9,64.0,30.31,East,97,12.0,17.0,75,0.00,,,0.00,weatherlink.com 1.10,2013-01-28 07:45:00,
2013-01-28 03:01:00,71.7,64.0,30.31,ESE,103,8.0,14.0,76,0.00,,,0.00,weatherlink.com 1.10,2013-01-28 08:01:00,
2013-01-28 03:16:00,71.7,64.0,30.31,ESE,102,11.0,14.0,76,0.00,,,0.00,weatherlink.com 1.10,2013-01-28 08:16:00,
2013-01-28 03:31:00,71.7,63.0,30.31,ENE,76,8.0,15.0,74,0.00,,,0.00,weatherlink.com 1.10,2013-01-28 08:31:00,
2013-01-28 03:45:00,71.8,64.0,30.31,ENE,70,7.0,13.0,75,0.00,,,0.00,weatherlink.com 1.10,2013-01-28 08:45:00,
2013-01-28 04:00:00,71.7,63.0,30.31,East,79,8.0,13.0,74,0.00,,,0.00,weatherlink.com 1.10,2013-01-28 09:00:00,
2013-01-28 04:15:00,71.8,64.0,30.31,East,87,10.0,13.0,76,0.00,,,0.00,weatherlink.com 1.10,2013-01-28 09:15:00,
2013-01-28 04:31:00,71.7,64.0,30.31,East,79,7.0,15.0,76,0.00,,,0.00,weatherlink.com 1.10,2013-01-28 09:31:00,
2013-01-28 04:46:00,71.6,64.0,30.31,East,81,6.0,13.0,77,0.00,,,0.00,weatherlink.com 1.10,2013-01-28 09:46:00,
2013-01-28 05:01:00,71.7,65.0,30.31,ENE,71,7.0,11.0,78,0.00,,,0.00,weatherlink.com 1.10,2013-01-28 10:01:00,
2013-01-28 05:16:00,71.6,64.0,30.31,ENE,64,4.0,11.0,78,0.00,,,0.00,weatherlink.com 1.10,2013-01-28 10:16:00,
2013-01-28 05:31:00,71.6,64.0,30.31,East,82,9.0,12.0,77,0.00,,,0.00,weatherlink.com 1.10,2013-01-28 10:31:00,
2013-01-28 05:46:00,71.7,64.0,30.32,ENE,58,6.0,13.0,77,0.00,,,0.00,weatherlink.com 1.10,2013-01-28 10:46:00,
2013-01-28 06:01:00,71.6,64.0,30.32,ENE,75,7.0,12.0,77,0.00,,,0.00,weatherlink.com 1.10,2013-01-28 11:01:00,
2013-01-28 06:16:00,71.7,64.0,30.32,ESE,105,10.0,13.0,76,0.00,,,0.00,weatherlink.com 1.10,2013-01-28 11:16:00,
2013-01-28 06:31:00,71.8,64.0,30.33,ESE,102,8.0,13.0,76,0.00,,,0.00,weatherlink.com 1.10,2013-01-28 11:31:00,
2013-01-28 06:46:00,71.9,64.0,30.33,ENE,77,4.0,11.0,77,0.00,,,0.00,weatherlink.com 1.10,2013-01-28 11:46:00,
2013-01-28 07:01:00,71.8,65.0,30.33,East,79,8.0,13.0,78,0.00,,,0.00,weatherlink.com 1.10,2013-01-28 12:01:00,
2013-01-28 07:16:00,71.9,65.0,30.33,East,79,7.0,10.0,78,0.00,,,0.00,weatherlink.com 1.10,2013-01-28 12:16:00,
2013-01-28 07:31:00,72.2,65.0,30.34,ENE,76,9.0,13.0,77,0.00,,,0.00,weatherlink.com 1.10,2013-01-28 12:31:00,
2013-01-28 07:46:00,72.3,65.0,30.34,East,97,8.0,12.0,77,0.00,,,0.00,weatherlink.com 1.10,2013-01-28 12:46:00,
2013-01-28 08:01:00,72.8,65.0,30.34,ENE,71,12.0,13.0,77,0.00,,,0.00,weatherlink.com 1.10,2013-01-28 13:01:00,
2013-01-28 08:16:00,73.1,66.0,30.34,ENE,67,9.0,13.0,77,0.00,,,0.00,weatherlink.com 1.10,2013-01-28 13:16:00,
2013-01-28 08:31:00,73.3,65.0,30.35,ENE,64,12.0,14.0,76,0.00,,,0.00,weatherlink.com 1.10,2013-01-28 13:31:00,
2013-01-28 08:46:00,73.6,66.0,30.35,East,92,8.0,15.0,77,0.00,,,0.00,weatherlink.com 1.10,2013-01-28 13:46:00,
2013-01-28 09:01:00,73.4,65.0,30.36,East,99,10.0,15.0,76,0.00,,,0.00,weatherlink.com 1.10,2013-01-28 14:01:00,
2013-01-28 09:16:00,74.1,66.0,30.36,East,83,11.0,14.0,77,0.00,,,0.00,weatherlink.com 1.10,2013-01-28 14:16:00,
2013-01-28 09:31:00,74.1,66.0,30.37,East,94,7.0,14.0,76,0.00,,,0.00,weatherlink.com 1.10,2013-01-28 14:31:00,
2013-01-28 09:46:00,74.3,66.0,30.37,ENE,67,11.0,13.0,75,0.00,,,0.00,weatherlink.com 1.10,2013-01-28 14:46:00,
2013-01-28 10:01:00,74.4,66.0,30.38,East,94,13.0,16.0,74,0.00,,,0.00,weatherlink.com 1.10,2013-01-28 15:01:00,
2013-01-28 10:16:00,74.5,66.0,30.38,ESE,117,8.0,13.0,75,0.00,,,0.00,weatherlink.com 1.10,2013-01-28 15:16:00,
2013-01-28 10:31:00,74.9,67.0,30.38,East,91,9.0,14.0,75,0.00,,,0.00,weatherlink.com 1.10,2013-01-28 15:31:00,
2013-01-28 10:46:00,74.7,66.0,30.38,ENE,61,9.0,13.0,75,0.00,,,0.00,weatherlink.com 1.10,2013-01-28 15:46:00,
2013-01-28 11:02:00,75.2,67.0,30.38,East,83,8.0,15.0,75,0.00,,,0.00,weatherlink.com 1.10,2013-01-28 16:02:00,
2013-01-28 11:17:00,75.3,67.0,30.38,East,82,7.0,12.0,76,0.00,,,0.00,weatherlink.com 1.10,2013-01-28 16:17:00,
2013-01-28 11:31:00,75.7,67.0,30.37,East,93,12.0,16.0,74,0.00,,,0.00,weatherlink.com 1.10,2013-01-28 16:31:00,
2013-01-28 11:46:00,75.5,67.0,30.37,East,88,11.0,13.0,75,0.00,,,0.00,weatherlink.com 1.10,2013-01-28 16:46:00,
2013-01-28 12:02:00,75.1,67.0,30.36,ESE,108,10.0,13.0,76,0.00,,,0.00,weatherlink.com 1.10,2013-01-28 17:02:00,
2013-01-28 12:16:00,75.3,68.0,30.36,ESE,107,9.0,12.0,77,0.00,,,0.00,weatherlink.com 1.10,2013-01-28 17:16:00,
2013-01-28 12:31:00,75.4,68.0,30.35,East,96,9.0,13.0,77,0.00,,,0.00,weatherlink.com 1.10,2013-01-28 17:31:00,
2013-01-28 12:46:00,75.1,67.0,30.34,East,89,12.0,12.0,77,0.00,,,0.00,weatherlink.com 1.10,2013-01-28 17:46:00,
2013-01-28 13:01:00,76.3,66.0,30.33,ESE,107,11.0,14.0,71,0.00,,,0.00,weatherlink.com 1.10,2013-01-28 18:01:00,
2013-01-28 13:16:00,76.4,65.0,30.32,East,98,10.0,15.0,68,0.00,,,0.00,weatherlink.com 1.10,2013-01-28 18:16:00,
2013-01-28 13:31:00,76.3,66.0,30.32,East,91,10.0,14.0,70,0.00,,,0.00,weatherlink.com 1.10,2013-01-28 18:31:00,
2013-01-28 13:49:00,75.7,66.0,30.31,East,85,8.0,13.0,73,0.00,,,0.00,weatherlink.com 1.10,2013-01-28 18:49:00,
2013-01-28 14:02:00,76.2,66.0,30.31,East,101,10.0,12.0,70,0.00,,,0.00,weatherlink.com 1.10,2013-01-28 19:02:00,
2013-01-28 14:17:00,76.2,66.0,30.30,East,91,9.0,14.0,71,0.00,,,0.00,weatherlink.com 1.10,2013-01-28 19:17:00,
2013-01-28 14:32:00,76.0,66.0,30.30,East,85,14.0,14.0,70,0.00,,,0.00,weatherlink.com 1.10,2013-01-28 19:32:00,
2013-01-28 14:47:00,76.1,66.0,30.30,East,86,11.0,13.0,72,0.00,,,0.00,weatherlink.com 1.10,2013-01-28 19:47:00,
2013-01-28 15:02:00,76.0,66.0,30.30,ESE,108,11.0,13.0,72,0.00,,,0.00,weatherlink.com 1.10,2013-01-28 20:02:00,
2013-01-28 15:17:00,76.0,66.0,30.30,East,101,4.0,17.0,72,0.00,,,0.00,weatherlink.com 1.10,2013-01-28 20:17:00,
2013-01-28 15:32:00,76.0,66.0,30.29,ENE,76,10.0,13.0,71,0.00,,,0.00,weatherlink.com 1.10,2013-01-28 20:32:00,
2013-01-28 15:47:00,75.8,65.0,30.29,ESE,106,13.0,13.0,70,0.00,,,0.00,weatherlink.com 1.10,2013-01-28 20:47:00,
2013-01-28 16:02:00,76.1,66.0,30.29,East,85,7.0,13.0,71,0.00,,,0.00,weatherlink.com 1.10,2013-01-28 21:02:00,
2013-01-28 16:18:00,74.9,67.0,30.29,East,89,9.0,12.0,75,0.00,,,0.00,weatherlink.com 1.10,2013-01-28 21:18:00,
2013-01-28 16:32:00,75.3,67.0,30.29,East,84,9.0,13.0,74,0.00,,,0.00,weatherlink.com 1.10,2013-01-28 21:32:00,
2013-01-28 16:47:00,74.9,66.0,30.29,East,101,7.0,13.0,73,0.00,,,0.00,weatherlink.com 1.10,2013-01-28 21:47:00,
2013-01-28 17:02:00,74.9,67.0,30.30,East,91,6.0,12.0,75,0.00,,,0.00,weatherlink.com 1.10,2013-01-28 22:02:00,
2013-01-28 17:17:00,74.8,66.0,30.30,ENE,73,8.0,11.0,74,0.00,,,0.00,weatherlink.com 1.10,2013-01-28 22:17:00,
2013-01-28 17:32:00,74.9,67.0,30.30,East,101,7.0,12.0,77,0.00,,,0.00,weatherlink.com 1.10,2013-01-28 22:32:00,
2013-01-28 17:47:00,74.2,66.0,30.30,East,97,9.0,13.0,76,0.00,,,0.00,weatherlink.com 1.10,2013-01-28 22:47:00,
2013-01-28 18:02:00,74.0,67.0,30.30,East,100,4.0,13.0,78,0.00,,,0.00,weatherlink.com 1.10,2013-01-28 23:02:00,
2013-01-28 18:17:00,74.0,67.0,30.30,East,84,6.0,10.0,78,0.00,,,0.00,weatherlink.com 1.10,2013-01-28 23:17:00,
2013-01-28 18:32:00,73.7,66.0,30.30,ESE,115,3.0,12.0,78,0.00,,,0.00,weatherlink.com 1.10,2013-01-28 23:32:00,
2013-01-28 18:47:00,73.5,66.0,30.31,ESE,113,6.0,11.0,77,0.00,,,0.00,weatherlink.com 1.10,2013-01-28 23:47:00,
2013-01-28 19:02:00,73.6,66.0,30.31,ESE,122,5.0,12.0,77,0.00,,,0.00,weatherlink.com 1.10,2013-01-29 00:02:00,
2013-01-28 19:17:00,73.6,66.0,30.31,ESE,108,11.0,12.0,77,0.00,,,0.00,weatherlink.com 1.10,2013-01-29 00:17:00,
2013-01-28 19:32:00,73.4,66.0,30.31,East,97,5.0,6.0,78,0.00,,,0.00,weatherlink.com 1.10,2013-01-29 00:32:00,
2013-01-28 19:47:00,73.5,66.0,30.31,SE,131,5.0,10.0,78,0.00,,,0.00,weatherlink.com 1.10,2013-01-29 00:47:00,
2013-01-28 20:02:00,73.5,66.0,30.31,ESE,122,6.0,10.0,78,0.00,,,0.00,weatherlink.com 1.10,2013-01-29 01:02:00,
2013-01-28 20:17:00,73.5,66.0,30.31,East,90,9.0,11.0,77,0.00,,,0.00,weatherlink.com 1.10,2013-01-29 01:17:00,
2013-01-28 20:32:00,73.5,67.0,30.32,ENE,69,4.0,8.0,79,0.00,,,0.00,weatherlink.com 1.10,2013-01-29 01:32:00,
2013-01-28 20:47:00,73.5,67.0,30.32,ESE,105,6.0,8.0,79,0.00,,,0.00,weatherlink.com 1.10,2013-01-29 01:47:00,
2013-01-28 21:02:00,73.9,67.0,30.32,ESE,102,6.0,11.0,80,0.00,,,0.00,weatherlink.com 1.10,2013-01-29 02:02:00,
2013-01-28 21:17:00,73.6,67.0,30.32,East,91,7.0,12.0,81,0.00,,,0.00,weatherlink.com 1.10,2013-01-29 02:17:00,
2013-01-28 21:32:00,73.6,67.0,30.31,East,80,7.0,13.0,81,0.00,,,0.00,weatherlink.com 1.10,2013-01-29 02:32:00,
2013-01-28 21:47:00,73.7,68.0,30.31,East,101,6.0,10.0,81,0.00,,,0.00,weatherlink.com 1.10,2013-01-29 02:47:00,
2013-01-28 22:02:00,73.7,68.0,30.31,NE,54,6.0,13.0,83,0.00,,,0.00,weatherlink.com 1.10,2013-01-29 03:02:00,
2013-01-28 22:17:00,73.4,68.0,30.31,East,94,12.0,14.0,84,0.00,,,0.00,weatherlink.com 1.10,2013-01-29 03:17:00,
2013-01-28 22:32:00,73.3,68.0,30.32,ENE,59,5.0,13.0,84,0.00,,,0.00,weatherlink.com 1.10,2013-01-29 03:32:00,
2013-01-28 22:47:00,73.3,69.0,30.31,ENE,70,7.0,14.0,85,0.00,,,0.00,weatherlink.com 1.10,2013-01-29 03:47:00,
2013-01-28 23:02:00,73.2,69.0,30.31,East,101,10.0,12.0,85,0.00,,,0.00,weatherlink.com 1.10,2013-01-29 04:02:00,
2013-01-28 23:17:00,73.2,69.0,30.30,ENE,77,6.0,12.0,86,0.00,,,0.00,weatherlink.com 1.10,2013-01-29 04:17:00,
2013-01-28 23:33:00,73.2,69.0,30.30,East,96,9.0,12.0,87,0.00,,,0.00,weatherlink.com 1.10,2013-01-29 04:33:00,
2013-01-28 23:47:00,73.2,69.0,30.30,ENE,77,5.0,12.0,87,0.00,,,0.00,weatherlink.com 1.10,2013-01-29 04:47:00,